Weather History for KBLH - March, 2014

Change the Weather History Date:

Saturday, March 8, 2014

  Actual Average Record
Temperature  
Mean Temperature 72 °F -  
Max Temperature 82 °F 75 °F 89 °F (2004)
Min Temperature 63 °F 48 °F 39 °F (1971)
Cooling Degree Days 8    
Growing Degree Days 22 (Base 50)    
Moisture  
Dew Point 21 °F    
Average Humidity 15    
Maximum Humidity 23    
Minimum Humidity 9    
Precipitation  
Precipitation 0.00 in - - ()
Sea Level Pressure  
Sea Level Pressure 30.05 in    
Wind  
Wind Speed 19 mph (North)    
Max Wind Speed 29 mph    
Max Gust Speed 39 mph    
Visibility 10 miles    
Events      
Averages and records for this station are not official NWS values.
T = Trace of Precipitation, MM = Missing Value Source: NWS Daily Summary

Daily Weather History Graph

Daily Weather History Graph

Search for Another Location

Airport or City:

Trip Planner

Search our weather history database for the weather conditions in past years. The results will help you decide how hot, cold, wet, or windy it might be!

Date:

Astronomy

Mar. 08, 2014 Rise Set
Actual Time 5:58 AM PST 5:41 PM PST
Civil Twilight 5:33 AM PST 6:06 PM PST
Nautical Twilight 5:04 AM PST 6:35 PM PST
Astronomical Twilight 4:35 AM PST 7:03 PM PST
Moon 11:00 AM PST (3/8) 12:25 AM PST (3/8)
Length of Visible Light 12h 32m
Length of Day
11h 42m
First Quarter, 53% of the Moon is Illuminated
Mar 8
First Quarter
Mar 16
Full
Mar 23
Last Quarter
Mar 30
New
Apr 7
First Quarter

Hourly Weather History & Observations

Time (PST) Temp. Dew Point Humidity Pressure Visibility Wind Dir Wind Speed Gust Speed Precip Events Conditions
12:52 AM 68.0 °F 25.0 °F 20% 29.95 in 10.0 mi North 19.6 mph - N/A   Clear
1:52 AM 66.9 °F 24.1 °F 20% 29.97 in 10.0 mi North 20.7 mph 28.8 mph N/A   Clear
2:52 AM 64.0 °F 21.9 °F 20% 29.97 in 10.0 mi North 19.6 mph - N/A   Clear
3:52 AM 64.0 °F 23.0 °F 21% 29.98 in 10.0 mi North 21.9 mph - N/A   Clear
4:52 AM 64.0 °F 23.0 °F 21% 30.01 in 10.0 mi NNW 18.4 mph - N/A   Clear
5:52 AM 63.0 °F 24.1 °F 23% 30.05 in 10.0 mi NNW 17.3 mph - N/A   Clear
6:52 AM 64.0 °F 24.1 °F 22% 30.07 in 10.0 mi North 23.0 mph 29.9 mph N/A   Clear
7:52 AM 69.1 °F 23.0 °F 18% 30.09 in 10.0 mi North 25.3 mph 36.8 mph N/A   Clear
8:52 AM 71.1 °F 23.0 °F 16% 30.11 in 10.0 mi North 28.8 mph 39.1 mph N/A   Clear
9:52 AM 75.0 °F 21.9 °F 14% 30.12 in 10.0 mi North 21.9 mph - N/A   Clear
10:52 AM 77.0 °F 23.0 °F 13% 30.11 in 10.0 mi North 15.0 mph 25.3 mph N/A   Clear
11:52 AM 79.0 °F 23.0 °F 13% 30.09 in 10.0 mi NNE 15.0 mph - N/A   Clear
12:52 PM 81.0 °F 21.0 °F 11% 30.06 in 10.0 mi North 16.1 mph 25.3 mph N/A   Clear
1:52 PM 81.0 °F 18.0 °F 10% 30.04 in 10.0 mi North 10.4 mph 20.7 mph N/A   Clear
2:52 PM 82.0 °F 18.0 °F 9% 30.03 in 10.0 mi North 16.1 mph - N/A   Clear
3:52 PM 81.0 °F 19.0 °F 10% 30.03 in 10.0 mi North 18.4 mph 29.9 mph N/A   Clear
4:52 PM 81.0 °F 18.0 °F 10% 30.02 in 10.0 mi North 15.0 mph - N/A   Clear
5:52 PM 77.0 °F 17.1 °F 10% 30.04 in 10.0 mi NNW 9.2 mph - N/A   Clear
6:52 PM 73.0 °F 17.1 °F 12% 30.05 in 10.0 mi NNW 11.5 mph - N/A   Clear
7:52 PM 72.0 °F 18.0 °F 13% 30.07 in 10.0 mi North 17.3 mph - N/A   Clear
8:52 PM 71.1 °F 19.0 °F 14% 30.09 in 10.0 mi NNW 16.1 mph - N/A   Clear
9:52 PM 68.0 °F 18.0 °F 15% 30.11 in 10.0 mi North 10.4 mph - N/A   Clear
10:52 PM 71.1 °F 14.0 °F 11% 30.12 in 10.0 mi NE 17.3 mph - N/A   Clear
11:52 PM 66.9 °F 16.0 °F 14% 30.13 in 10.0 mi NE 11.5 mph - N/A   Clear